Weather History for KLHX - January, 2013

Change the Weather History Date:

Wednesday, January 2, 2013

  Actual Average Record
Temperature  
Mean Temperature 23 °F 30 °F  
Max Temperature 39 °F 44 °F 75 °F (1997)
Min Temperature 7 °F 17 °F -13 °F (1979)
Degree Days  
Heating Degree Days 42 35  
Month to date heating degree days 87 70  
Since 1 July heating degree days 2029 2273  
Cooling Degree Days 0 0  
Month to date cooling degree days 0 0  
Year to date cooling degree days 0 0  
Moisture  
Dew Point 9 °F    
Average Humidity 57    
Maximum Humidity 84    
Minimum Humidity 29    
Precipitation  
Precipitation 0.00 in 0.01 in 0.33 in (1980)
Month to date precipitation 0.00 0.02  
Year to date precipitation 0.00 0.02  
Sea Level Pressure  
Sea Level Pressure 30.32 in    
Wind  
Wind Speed 9 mph (WNW)    
Max Wind Speed 18 mph    
Max Gust Speed 21 mph    
Visibility 10 miles    
Events      
T = Trace of Precipitation, MM = Missing Value Source: NWS Daily Summary

Daily Weather History Graph

Daily Weather History Graph

Search for Another Location

Airport or City:

Trip Planner

Search our weather history database for the weather conditions in past years. The results will help you decide how hot, cold, wet, or windy it might be!

Date:

Astronomy

Jan. 02, 2013 Rise Set
Actual Time 7:10 AM MST 4:46 PM MST
Civil Twilight 6:41 AM MST 5:15 PM MST
Nautical Twilight 6:08 AM MST 5:48 PM MST
Astronomical Twilight 5:36 AM MST 6:20 PM MST
Moon 10:15 PM MST (1/2) 9:58 AM MST (1/2)
Length of Visible Light 10h 34m
Length of Day
9h 35m
Waning Gibbous, 74% of the Moon is Illuminated
Jan 2
Waning Gibbous
Jan 4
Last Quarter
Jan 11
New
Jan 18
First Quarter
Jan 26
Full

Hourly Weather History & Observations

Time (MST) Temp. Windchill Dew Point Humidity Pressure Visibility Wind Dir Wind Speed Gust Speed Precip Events Conditions
12:53 AM 10.9 °F -1.8 °F 6.1 °F 81% 30.27 in 10.0 mi SW 9.2 mph - N/A   Clear
1:53 AM 8.1 °F -0.5 °F 3.9 °F 83% 30.29 in 10.0 mi SSW 4.6 mph - N/A   Clear
2:53 AM 10.9 °F -0.8 °F 6.1 °F 81% 30.27 in 10.0 mi West 8.1 mph - N/A   Clear
3:53 AM 12.0 °F -2.7 °F 7.0 °F 80% 30.25 in 10.0 mi West 12.7 mph - N/A   Mostly Cloudy
5:53 AM 9.0 °F -6.6 °F 3.9 °F 80% 30.30 in 9.0 mi West 12.7 mph - N/A   Clear
6:53 AM 10.9 °F -3.4 °F 6.1 °F 81% 30.33 in 10.0 mi West 11.5 mph - N/A   Scattered Clouds
7:53 AM 12.9 °F -2.2 °F 6.1 °F 74% 30.34 in 10.0 mi West 13.8 mph - N/A   Scattered Clouds
8:53 AM 17.1 °F 3.6 °F 9.0 °F 71% 30.35 in 10.0 mi West 12.7 mph - N/A   Mostly Cloudy
9:53 AM 25.0 °F 14.8 °F 12.9 °F 60% 30.34 in 10.0 mi West 10.4 mph - N/A   Clear
10:53 AM 30.9 °F 24.3 °F 12.0 °F 46% 30.33 in 10.0 mi WNW 6.9 mph - N/A   Clear
11:53 AM 35.1 °F - 12.9 °F 40% 30.29 in 10.0 mi Calm Calm - N/A   Clear
12:53 PM 37.9 °F 30.9 °F 12.9 °F 36% 30.25 in 10.0 mi North 10.4 mph - N/A   Scattered Clouds
1:53 PM 37.0 °F 28.1 °F 8.1 °F 30% 30.25 in 10.0 mi North 15.0 mph - N/A   Scattered Clouds
2:53 PM 37.0 °F 28.9 °F 8.1 °F 30% 30.25 in 10.0 mi North 12.7 mph - N/A   Partly Cloudy
4:53 PM 28.9 °F 19.8 °F 10.0 °F 45% 30.32 in 10.0 mi NE 10.4 mph - N/A   Clear
5:53 PM 24.1 °F 12.5 °F 9.0 °F 53% 30.35 in 10.0 mi NE 12.7 mph - N/A   Clear
6:53 PM 23.0 °F 15.8 °F 10.0 °F 58% 30.38 in 10.0 mi NE 5.8 mph - N/A   Clear
7:53 PM 24.1 °F - 10.9 °F 57% 30.38 in 10.0 mi Calm Calm - N/A   Clear
8:53 PM 21.9 °F 17.2 °F 10.0 °F 60% 30.39 in 10.0 mi SSW 3.5 mph - N/A   Clear
9:53 PM 21.0 °F 10.6 °F 10.0 °F 63% 30.39 in 10.0 mi WSW 9.2 mph - N/A   Overcast
10:53 PM 19.9 °F 11.1 °F 9.0 °F 62% 30.40 in 10.0 mi West 6.9 mph - N/A   Overcast
11:53 PM 19.9 °F 10.1 °F 8.1 °F 60% 30.39 in 10.0 mi West 8.1 mph - N/A   Overcast